Location: Le Petit-Vavre
(46.5081°N, 1.5239°E)
Time: 21:42:02
(UTC+00:00)

H-2A R/B - Pass Details

Date: 03 March 2021
Orbit: 578 x 654 km, 98.5° (Epoch: 22 April)

Event Time Altitude Azimuth Distance (km) Brightness Sun altitude
Rises 18:31:12 0° 4° (N) 2,808 5.4 -9.1°
Reaches altitude 10° 18:33:35 10° 352° (N) 1,902 4.7 -9.5°
Maximum altitude 18:37:03 27° 294° (WNW) 1,120 4.2 -10.1°
Drops below altitude 10° 18:40:32 10° 236° (SW) 1,897 5.4 -10.7°
Sets 18:42:54 0° 224° (SW) 2,798 6.1 -11.1°
